Regional Weather Roundup
Issued by NWS

Home | Current Version | Previous Version | Text Only | Print | Product List | Glossary On
Versions: 1 2 3 4 5 6 7 8 9 10 11 12 13 14 15 16 17 18 19 20 21 22 23 24 25 26 27 28 29 30 31 32 33 34 35 36 37 38 39 40 41 42 43 44 45 46 47 48 49 50
000
ASCA42 TJSJ 261311
RWRPR
PUERTO RICO/U.S. VIRGIN ISLANDS HOURLY WEATHER ROUNDUP
NATIONAL WEATHER SERVICE SAN JUAN PR
900 AM AST FRI DEC 26 2014

PRZ001-004-261400-
PUERTO RICO

CITY           SKY/WX    TMP DP  RH WIND       PRES   REMARKS
SAN JUAN LMM   PTSUNNY   77  73  88 E5        30.09R
PONCE          MOSUNNY   81  68  65 E12       30.01R
AGUADILLA      SUNNY     77  70  78 E9        30.11R
CEIBA          PTSUNNY   81  72  74 E9        30.11R
$$

PRZ006-007-261400-
U.S. VIRGIN ISLANDS

CITY           SKY/WX    TMP DP  RH WIND       PRES   REMARKS
$$

HOURLY WEATHER ROUNDUP FOR THE NEWS MEDIA

CITY           SKY/WX    TMP DP  RH WIND       PRES   REMARKS
MIAMI          CLOUDY    67  63  87 NW6       30.16R
ORLANDO        MOCLDY    57  50  77 N3        30.24R
NEW YORK       PTCLDY    41  30  65 W13       30.25R
NEWARK         PTCLDY    38  29  70 W10       30.25R WCI  31
CHICAGO        PTCLDY    37  32  82 SW10      29.99R WCI  30
HARTFORD       CLEAR     35  32  88 SW6       30.16R WCI  30
BOSTON         CLEAR     39  29  67 SW13      30.12R WCI  31
DALLAS         MOCLDY    54  47  77 SE14      29.93R
PHILADELPHIA   CLEAR     37  28  70 W8        30.30R WCI  31



USA.gov is the U.S. government's official web portal to all federal, state and local government web resources and services.